sat.trackr.live / text

‹ back to catalog

IRIDE-MS1-EAGLET 2-3

NORAD 66697 · 2025-276AH

PAYLOAD ACTIVE UNKNOWN

§ Identity

Operator
Country
IT
Launch date
2025-11-28
Launch site
AFWTR
Launch vehicle
Mass (kg)
RCS (m²)

External: N2YO · Heavens-Above · Gunter

§ Orbital elements

Epoch: 2026-09-20T10:52:57.023328Z

Period
94.62 min
Inclination
97.4103°
Eccentricity
0.0001938
Mean motion
15.21951633 rev/d
Perigee alt
498.6 km
Apogee alt
501.3 km
Semi-major
6,878.1 km
B*
1.9008e-4
RAAN
335.7943°
Arg perigee
34.3665°
Mean anomaly
325.7696°
Rev number
4,492

§ Raw data

IRIDE-MS1-EAGLET 2-31 66697U 25276AH  26263.45343777  .00004264  00000+0  19008-3 0  99912 66697  97.4103 335.7943 0001938  34.3665 325.7696 15.21951633 44925

JSON: /api/v1/satellites/66697 · /tle

For live sub-satellite position, see the globe view (requires WebGL).

§ Visibility from observer

Set your observer location to see the next 7 days of passes ≥ 10°. The values pass through the URL so the page stays shareable.

No JS? Fill the form by hand. The geolocation button needs JavaScript.